Weather History for Port Aransas, TX

Change the Weather History Date:

Friday, March 29, 2013

  Actual Average (KCRP) Record (KCRP)
Temperature  
Mean Temperature 68 °F 69 °F  
Max Temperature 73 °F 79 °F 92 °F (2000)
Min Temperature 63 °F 59 °F 40 °F (1894)
Degree Days  
Heating Degree Days 0 1  
Month to date heating degree days 79  
Since 1 July heating degree days 879  
Cooling Degree Days 3 5  
Month to date cooling degree days 105  
Year to date cooling degree days 181  
Growing Degree Days 18 (Base 50)    
Moisture  
Dew Point 63 °F    
Average Humidity 84    
Maximum Humidity 93    
Minimum Humidity 71    
Precipitation  
Precipitation 0.00 in 0.06 in 1.57 in (1990)
Month to date precipitation 1.80  
Year to date precipitation 5.27  
Snow  
Snow 0.00 in - - ()
Month to date snowfall  
Since 1 July snowfall  
Snow Depth -    
Sea Level Pressure  
Sea Level Pressure 30.13 in    
Wind  
Wind Speed 8 mph (SE)    
Max Wind Speed 15 mph    
Max Gust Speed 20 mph    
Visibility 10 miles    
Events      
T = Trace of Precipitation, MM = Missing Value Source: NWS Daily Summary

Daily Weather History Graph

Daily Weather History Graph

Search for Another Location

Airport:

Trip Planner

Search our weather history database for the weather conditions in past years. The results will help you decide how hot, cold, wet, or windy it might be!

Date:

Astronomy

Mar. 29, 2013 Rise Set
Actual Time 7:21 AM CDT 7:44 PM CDT
Civil Twilight 6:58 AM CDT 8:08 PM CDT
Nautical Twilight 6:30 AM CDT 8:35 PM CDT
Astronomical Twilight 6:03 AM CDT 9:03 PM CDT
Moon 10:28 PM CDT (3/29) 8:46 AM CDT (3/29)
Length of Visible Light 13h 09m
Length of Day
12h 22m
Waning Gibbous, 93% of the Moon is Illuminated
Mar 29
Waning Gibbous
Apr 2
Last Quarter
Apr 10
New
Apr 18
First Quarter
Apr 25
Full

Hourly Weather History & Observations

Time (CDT) Temp. Dew Point Humidity Pressure Visibility Wind Dir Wind Speed Gust Speed Precip Events Conditions
12:15 AM 64.9 °F 61.2 °F 88% 30.17 in 10.0 mi SE 9.2 mph - N/A   Scattered Clouds
12:35 AM 65.3 °F 61.0 °F 86% 30.17 in 10.0 mi SE 8.1 mph - N/A   Scattered Clouds
12:55 AM 65.3 °F 61.0 °F 86% 30.16 in 10.0 mi SE 10.4 mph - N/A   Scattered Clouds
1:15 AM 65.1 °F 61.2 °F 87% 30.16 in 10.0 mi SE 10.4 mph - N/A   Scattered Clouds
1:35 AM 64.9 °F 61.2 °F 88% 30.17 in 10.0 mi SE 6.9 mph - N/A   Mostly Cloudy
1:55 AM 64.8 °F 61.3 °F 89% 30.16 in 10.0 mi SE 5.8 mph - N/A   Scattered Clouds
2:15 AM 64.2 °F 61.3 °F 90% 30.17 in 10.0 mi SE 5.8 mph - N/A   Clear
2:35 AM 63.9 °F 61.3 °F 91% 30.17 in 10.0 mi SSE 5.8 mph - N/A   Clear
2:55 AM 64.4 °F 61.7 °F 91% 30.16 in 10.0 mi SE 5.8 mph - N/A   Clear
3:15 AM 64.4 °F 61.5 °F 90% 30.16 in 10.0 mi SE 5.8 mph - N/A   Scattered Clouds
3:35 AM 64.4 °F 61.7 °F 91% 30.15 in 10.0 mi SE 3.5 mph - N/A   Mostly Cloudy
3:55 AM 64.6 °F 61.7 °F 90% 30.14 in 10.0 mi SE 4.6 mph - N/A   Overcast
4:15 AM 64.4 °F 61.7 °F 91% 30.14 in 10.0 mi SE 5.8 mph - N/A   Overcast
4:35 AM 64.4 °F 61.7 °F 91% 30.14 in 10.0 mi SE 5.8 mph - N/A   Overcast
4:55 AM 64.4 °F 61.9 °F 92% 30.13 in 10.0 mi SE 5.8 mph - N/A   Overcast
5:15 AM 64.4 °F 61.7 °F 91% 30.14 in 10.0 mi SE 6.9 mph - N/A   Mostly Cloudy
5:35 AM 64.4 °F 61.7 °F 91% 30.14 in 10.0 mi SE 5.8 mph - N/A   Mostly Cloudy
5:55 AM 63.9 °F 61.5 °F 92% 30.14 in 10.0 mi ESE 5.8 mph - N/A   Mostly Cloudy
6:15 AM 63.9 °F 61.7 °F 93% 30.14 in 10.0 mi SE 5.8 mph - N/A   Scattered Clouds
6:35 AM 64.2 °F 61.7 °F 91% 30.14 in 10.0 mi ESE 5.8 mph - N/A   Scattered Clouds
6:55 AM 63.9 °F 61.7 °F 93% 30.14 in 10.0 mi ESE 6.9 mph - N/A   Scattered Clouds
7:15 AM 64.0 °F 61.7 °F 92% 30.14 in 10.0 mi ESE 8.1 mph - N/A   Clear
7:35 AM 64.6 °F 61.7 °F 90% 30.15 in 10.0 mi SE 8.1 mph - N/A   Clear
7:55 AM 65.3 °F 61.7 °F 88% 30.16 in 10.0 mi SE 8.1 mph - N/A   Clear
8:15 AM 65.7 °F 61.9 °F 88% 30.16 in 10.0 mi SE 6.9 mph - N/A   Clear
8:35 AM 66.4 °F 62.2 °F 86% 30.17 in 10.0 mi SE 8.1 mph - N/A   Clear
8:55 AM 66.2 °F 62.1 °F 86% 30.17 in 10.0 mi ESE 8.1 mph - N/A   Clear
9:15 AM 68.0 °F 62.6 °F 83% 30.17 in 10.0 mi SE 6.9 mph - N/A   Clear
9:35 AM 68.5 °F 62.6 °F 81% 30.17 in 10.0 mi SE 9.2 mph - N/A   Clear
9:55 AM 68.9 °F 62.4 °F 80% 30.18 in 10.0 mi SE 9.2 mph - N/A   Clear
10:15 AM 69.1 °F 62.4 °F 79% 30.18 in 10.0 mi SE 9.2 mph - N/A   Clear
10:35 AM 70.7 °F 62.6 °F 75% 30.18 in 10.0 mi SE 9.2 mph - N/A   Clear
10:55 AM 71.1 °F 62.6 °F 75% 30.18 in 10.0 mi SE 8.1 mph - N/A   Clear
11:15 AM 71.2 °F 62.8 °F 75% 30.18 in 10.0 mi SE 8.1 mph - N/A   Clear
11:55 AM 72.5 °F 63.5 °F 73% 30.18 in 10.0 mi SE 11.5 mph - N/A   Scattered Clouds
12:15 PM 72.1 °F 63.1 °F 73% 30.18 in 10.0 mi SE 11.5 mph 16.1 mph N/A   Scattered Clouds
12:35 PM 72.1 °F 63.1 °F 73% 30.17 in 10.0 mi SE 12.7 mph 18.4 mph N/A   Clear
12:55 PM 73.0 °F 63.0 °F 71% 30.17 in 10.0 mi SE 15.0 mph 19.6 mph N/A   Clear
1:15 PM 72.0 °F 62.8 °F 73% 30.17 in 10.0 mi SE 11.5 mph 16.1 mph N/A   Scattered Clouds
1:35 PM 73.0 °F 63.0 °F 71% 30.16 in 10.0 mi SE 10.4 mph 17.3 mph N/A   Scattered Clouds
1:55 PM 71.8 °F 63.0 °F 74% 30.15 in 10.0 mi SE 11.5 mph 16.1 mph N/A   Mostly Cloudy
2:15 PM 72.0 °F 63.3 °F 74% 30.14 in 10.0 mi SE 10.4 mph 16.1 mph N/A   Mostly Cloudy
2:35 PM 71.8 °F 63.1 °F 74% 30.13 in 10.0 mi SE 12.7 mph - N/A   Overcast
2:55 PM 71.6 °F 63.3 °F 75% 30.13 in 10.0 mi SE 9.2 mph - N/A   Overcast
3:15 PM 71.1 °F 63.5 °F 77% 30.12 in 10.0 mi ESE 10.4 mph - N/A   Overcast
3:35 PM 71.2 °F 63.5 °F 76% 30.11 in 10.0 mi ESE 12.7 mph - N/A   Overcast
3:55 PM 71.1 °F 63.5 °F 77% 30.10 in 10.0 mi ESE 11.5 mph - N/A   Overcast
4:15 PM 71.4 °F 63.7 °F 76% 30.10 in 10.0 mi SE 9.2 mph - N/A   Overcast
4:35 PM 72.1 °F 63.7 °F 75% 30.09 in 10.0 mi SE 10.4 mph - N/A   Overcast
4:55 PM 71.8 °F 63.7 °F 76% 30.09 in 10.0 mi SE 10.4 mph - N/A   Overcast
5:15 PM 71.4 °F 64.0 °F 77% 30.09 in 10.0 mi SE 10.4 mph - N/A   Scattered Clouds
5:35 PM 70.7 °F 64.0 °F 79% 30.08 in 10.0 mi ESE 10.4 mph - N/A   Clear
5:55 PM 70.5 °F 64.2 °F 80% 30.09 in 10.0 mi SE 9.2 mph - N/A   Clear
6:15 PM 69.6 °F 64.0 °F 82% 30.09 in 10.0 mi SE 9.2 mph - N/A   Clear
6:35 PM 68.9 °F 64.0 °F 84% 30.08 in 10.0 mi ESE 9.2 mph - N/A   Clear
6:55 PM 68.2 °F 64.0 °F 87% 30.09 in 10.0 mi SE 8.1 mph - N/A   Clear
7:15 PM 68.0 °F 64.0 °F 87% 30.09 in 10.0 mi SE 8.1 mph - N/A   Clear
7:35 PM 67.5 °F 63.9 °F 88% 30.08 in 10.0 mi ESE 9.2 mph - N/A   Clear
7:55 PM 67.5 °F 64.0 °F 89% 30.09 in 10.0 mi ESE 9.2 mph - N/A   Clear
8:15 PM 67.3 °F 64.2 °F 90% 30.08 in 10.0 mi ESE 11.5 mph - N/A   Clear
8:35 PM 67.1 °F 63.9 °F 89% 30.07 in 10.0 mi ESE 10.4 mph 17.3 mph N/A   Clear
8:55 PM 67.5 °F 63.7 °F 88% 30.10 in 10.0 mi SE 10.4 mph - N/A   Clear
9:15 PM 67.5 °F 63.5 °F 87% 30.10 in 10.0 mi SE 10.4 mph - N/A   Clear
9:35 PM 67.3 °F 63.7 °F 88% 30.10 in 10.0 mi SE 9.2 mph - N/A   Clear
9:55 PM 67.3 °F 63.5 °F 88% 30.10 in 10.0 mi SE 10.4 mph - N/A   Clear
10:15 PM 67.1 °F 63.5 °F 88% 30.11 in 10.0 mi SE 11.5 mph - N/A   Clear
10:35 PM 67.3 °F 63.5 °F 88% 30.11 in 10.0 mi SE 11.5 mph - N/A   Clear
10:55 PM 67.3 °F 63.5 °F 88% 30.11 in 10.0 mi SE 12.7 mph 17.3 mph N/A   Clear
11:15 PM 66.7 °F 63.5 °F 89% 30.11 in 10.0 mi SE 10.4 mph - N/A   Clear
11:35 PM 67.1 °F 63.1 °F 87% 30.11 in 10.0 mi SE 11.5 mph - N/A   Clear
11:55 PM 67.1 °F 63.0 °F 87% 30.11 in 10.0 mi SE 8.1 mph - N/A   Clear